Location: Newark
(44.9861°N, 0.2536°E)
Time: 20:07:38
(UTC+00:00)

HuskySat-1 - Pass Details

Date: 10 July 2020
Orbit: 457 x 471 km, 51.6° (Epoch: 11 August)

Event Time Altitude Azimuth Distance (km) Brightness Sun altitude
Rises 03:27:29 0° 285° (WNW) 2,487 ? -8.5°
Reaches altitude 10° 03:29:51 10° 298° (WNW) 1,610 ? -8.2°
Maximum altitude 03:33:00 27° 359° (N) 911 ? -7.8°
Drops below altitude 10° 03:36:09 10° 59° (ENE) 1,604 ? -7.3°
Sets 03:38:31 0° 72° (ENE) 2,476 ? -7.0°
